PSLV R/B

Satellite information

Favourite Embed

Satellite Type and Status

ROCKET BODYIN ORBIT

Key statistics

Satellite PSLV R/B at a glance.

Uptime

5585

Days in orbit

Revolutions

≈ 15.1

Per day

Orbit

SSO

Sun Synchronous Orbit

Inclination

98.0

Latest

Satellite identification and parameters

Extended collection of information and parameters for PSLV R/B.

Object identification

Identified? True

Debris? False

Object name: PSLV R/B

International designator: 2010-035F

Object number (NORAD): 36800

Object ID (CCSDS): 36800

Country: INDIA (IND)

Current information (Y/N): Y

RCS size: LARGE

Orbital parameters

Period: 95.389 minutes

Inclination: 97.9739 deg

SMA: 6915.548 km

Apoapsis: 545.631 km

Periapsis: 529.195 km

RAAN: 214.5654 deg

Eccentricy: 0.0011883

Argument of periapsis: 310.3967 deg

Mean anomaly: 49.6223 deg

Mean motion: 15.09603381 rev/day

Mean motion (dot): 0.00007901 rev/day2

B* drag term: 0.00049494128 1/REarth

Two-line elements (TLE)

Creation date: Oct. 26, 2025, 2:54 a.m.

Reference frame: TEME

Reference center: EARTH

Epoch: Oct. 25, 2025, 9:42 p.m. UTC

TLE line 0: 0 PSLV R/B

TLE line 1: 1 36800U 10035F 25298.90473854 .00007901 00000-0 49494-3 0 9992

TLE line 2: 2 36800 97.9739 214.5654 0011883 310.3967 49.6223 15.09603381833691

Live tracking on map

Real-time ground track for satellite PSLV R/B.

In-orbit conjunctions

A list of the most updated potential collisions computed for object PSLV R/B.

Target Orbit TCA Probability of collision Miss distance Type
COSMOS 1275 DEB LEO 2025-10-01 09:38:29 0.0005239634 53.0 (m) DEBRIS
ELECTRON KICK STAGE R/B LEO 2025-07-14 19:23:12 0.0003243573 373.0 (m) ROCKET BODY

Associated space launch

Cartosat-2B is fourth of Cartosat series of Earth observation satellites to be deployed in sun-synchronous orbit. Its main purpose is to collect high resolution imagery for cartography purposes. Cartosat-2B was launched along with several small satellites for Algeria, Canada and Switzerland.

PSLV R/B was lifted into orbit during the mission ‘PSLV-CA | Cartosat-2B, AlSat-2A, StudSat, AISSat-1, TIsat-1’, on board a PSLV space rocket.

The launch took place on July 12, 2010, 3:52 a.m. from Satish Dhawan Space Centre First Launch Pad.

For more information about the launch, click the button.

Launch to space PSLV-CA | Cartosat-2B, AlSat-2A, StudSat, AISSat-1, TIsat-1
PSLV-CA | Cartosat-2B, AlSat-2A, StudSat, AISSat-1, TIsat-1

Agency: N/A

Status: Launch Successful

Launch date: July 12, 2010, 3:52 a.m. UTC

Rocket: PSLV

Launch pad: Satish Dhawan Space Centre First Launch Pad

Location: Satish Dhawan Space Centre, India

...

Latest news about this satellite

There are no fresh news available about this satellite. Check back as we update our databases every day.


Newsletter sign-up

Weekly statistics, charts and insights to help you stay on top of the space industry.